Weather History for KBOW - May, 2014

Change the Weather History Date:

Saturday, May 31, 2014

  Actual Average Record
Temperature  
Mean Temperature 76 °F -  
Max Temperature 84 °F 90 °F 98 °F (1945)
Min Temperature 69 °F 67 °F 59 °F (1971)
Cooling Degree Days 12    
Growing Degree Days 26 (Base 50)    
Moisture  
Dew Point 72 °F    
Average Humidity 91    
Maximum Humidity 100    
Minimum Humidity 55    
Precipitation  
Precipitation 0.00 in - - ()
Sea Level Pressure  
Sea Level Pressure 30.04 in    
Wind  
Wind Speed 3 mph (East)    
Max Wind Speed 23 mph    
Max Gust Speed 34 mph    
Visibility 10 miles    
Events Rain    
Averages and records for this station are not official NWS values.
T = Trace of Precipitation, MM = Missing Value Source: NWS Daily Summary

Daily Weather History Graph

Daily Weather History Graph

Search for Another Location

Airport or City:

Trip Planner

Search our weather history database for the weather conditions in past years. The results will help you decide how hot, cold, wet, or windy it might be!

Date:

Astronomy

May. 31, 2014 Rise Set
Actual Time 6:31 AM EDT 8:18 PM EDT
Civil Twilight 6:05 AM EDT 8:44 PM EDT
Nautical Twilight 5:33 AM EDT 9:16 PM EDT
Astronomical Twilight 4:59 AM EDT 9:50 PM EDT
Moon 9:01 AM EDT (5/31) 10:43 PM EDT (5/31)
Length of Visible Light 14h 39m
Length of Day
13h 47m
Waxing Crescent, 8% of the Moon is Illuminated
May 31
Waxing Crescent
Jun 5
First Quarter
Jun 13
Full
Jun 19
Last Quarter
Jun 27
New

Hourly Weather History & Observations

Time (EDT) Temp. Heat Index Dew Point Humidity Pressure Visibility Wind Dir Wind Speed Gust Speed Precip Events Conditions
12:15 AM 69.8 °F - - N/A% 30.06 in 10.0 mi SE 3.5 mph - N/A   Clear
12:35 AM 69.8 °F - - N/A% 30.05 in 10.0 mi Calm Calm - N/A   Clear
12:55 AM 71.6 °F - - N/A% 30.05 in 10.0 mi Calm Calm - N/A   Clear
1:35 AM 69.8 °F - - N/A% 30.04 in 10.0 mi East 3.5 mph - N/A   Clear
1:55 AM 69.8 °F - - N/A% 30.04 in 10.0 mi Calm Calm - N/A   Clear
2:15 AM 69.8 °F - - N/A% 30.03 in 10.0 mi Calm Calm - N/A   Clear
2:35 AM 69.8 °F - - N/A% 30.04 in 10.0 mi Calm Calm - N/A   Clear
2:55 AM 69.8 °F - - N/A% 30.04 in 10.0 mi Calm Calm - N/A   Clear
3:15 AM 69.8 °F - - N/A% 30.03 in 10.0 mi Calm Calm - N/A   Clear
3:35 AM 69.8 °F - - N/A% 30.03 in 10.0 mi Calm Calm - N/A   Clear
3:55 AM 69.8 °F - - N/A% 30.03 in 10.0 mi Calm Calm - N/A   Clear
4:15 AM 69.8 °F - - N/A% 30.03 in 10.0 mi East 3.5 mph - N/A   Clear
4:35 AM 69.8 °F - - N/A% 30.02 in 10.0 mi Calm Calm - N/A   Clear
4:55 AM 69.8 °F - - N/A% 30.03 in 10.0 mi Calm Calm - N/A   Clear
5:15 AM 69.8 °F - 69.8 °F 100% 30.03 in 10.0 mi Calm Calm - N/A   Clear
5:35 AM 69.8 °F - 69.8 °F 100% 30.03 in 10.0 mi Calm Calm - N/A   Clear
5:55 AM 69.8 °F - 69.8 °F 100% 30.03 in 10.0 mi Calm Calm - N/A   Clear
6:15 AM 69.8 °F - - N/A% 30.04 in 10.0 mi Calm Calm - N/A   Clear
6:35 AM 69.8 °F - 69.8 °F 100% 30.04 in 10.0 mi Calm Calm - N/A Rain Light Rain
6:55 AM 69.8 °F - - N/A% 30.04 in 10.0 mi Calm Calm - N/A   Clear
7:15 AM 69.8 °F - - N/A% 30.04 in 10.0 mi Calm Calm - N/A   Clear
7:47 AM 71.6 °F - - N/A% 30.05 in 10.0 mi East 3.5 mph - N/A   Mostly Cloudy
8:47 AM 75.2 °F - 75.2 °F 100% 30.06 in 10.0 mi East 4.6 mph - N/A   Mostly Cloudy
9:50 AM 78.8 °F - 75.2 °F 89% 30.06 in 10.0 mi ESE 5.8 mph - N/A   Mostly Cloudy
11:47 AM 82.4 °F 84.6 °F 66.2 °F 58% 30.06 in 10.0 mi East 5.8 mph - N/A   Mostly Cloudy
12:47 PM 84.2 °F 88.4 °F 69.8 °F 62% 30.05 in 10.0 mi Variable 5.8 mph - N/A   Mostly Cloudy
1:50 PM 84.2 °F 86.6 °F 66.2 °F 55% 30.03 in 10.0 mi ENE 4.6 mph - N/A   Mostly Cloudy
2:47 PM 82.4 °F 86.3 °F 69.8 °F 66% 30.02 in 10.0 mi SSW 6.9 mph - N/A   Mostly Cloudy
3:24 PM 73.4 °F - 69.8 °F 88% 30.05 in 0.5 mi ESE 23.0 mph 34.5 mph N/A Rain Heavy Rain
3:52 PM 71.6 °F - - N/A% 30.04 in 3.0 mi SE 9.2 mph - N/A Rain Light Rain
4:51 PM 73.4 °F - - N/A% 30.01 in 10.0 mi ESE 10.4 mph - N/A   Mostly Cloudy
5:35 PM 73.4 °F - 73.4 °F 100% 29.99 in 10.0 mi East 6.9 mph - N/A   Scattered Clouds
5:55 PM 73.4 °F - 73.4 °F 100% 29.99 in 10.0 mi East 5.8 mph - N/A   Partly Cloudy
6:15 PM 73.4 °F - 73.4 °F 100% 29.99 in 10.0 mi East 6.9 mph - N/A   Clear
6:35 PM 73.4 °F - 73.4 °F 100% 30.01 in 10.0 mi ESE 3.5 mph - N/A   Clear
6:55 PM 75.2 °F - 73.4 °F 94% 30.02 in 10.0 mi Calm Calm - N/A   Clear
7:15 PM 75.2 °F - 73.4 °F 94% 30.02 in 10.0 mi East 4.6 mph - N/A   Clear
7:35 PM 75.2 °F - 73.4 °F 94% 30.01 in 10.0 mi East 5.8 mph - N/A   Clear
8:15 PM 73.4 °F - 73.4 °F 100% 30.02 in 10.0 mi Calm Calm - N/A   Clear
8:35 PM 73.4 °F - 73.4 °F 100% 30.02 in 10.0 mi Calm Calm - N/A   Clear
8:55 PM 73.4 °F - 73.4 °F 100% 30.02 in 10.0 mi Calm Calm - N/A   Clear
9:15 PM 73.4 °F - 73.4 °F 100% 30.03 in 10.0 mi ENE 4.6 mph - N/A   Clear
9:35 PM 73.4 °F - - N/A% 30.03 in 10.0 mi ENE 4.6 mph - N/A   Clear
9:55 PM 73.4 °F - - N/A% 30.04 in 10.0 mi NE 3.5 mph - N/A   Clear
10:15 PM 73.4 °F - - N/A% 30.05 in 10.0 mi East 3.5 mph - N/A   Clear
10:35 PM 71.6 °F - - N/A% 30.06 in 10.0 mi ENE 4.6 mph - N/A   Clear
10:55 PM 71.6 °F - - N/A% 30.06 in 10.0 mi NE 4.6 mph - N/A   Clear
11:15 PM 71.6 °F - - N/A% 30.07 in 10.0 mi NE 3.5 mph - N/A   Clear
11:35 PM 71.6 °F - - N/A% 30.07 in 10.0 mi ENE 3.5 mph - N/A   Clear
11:55 PM 71.6 °F - - N/A% 30.06 in 10.0 mi East 4.6 mph - N/A   Clear